Powrót do katalogu

BREEZE-M R/B

AktywnyHEO
NORAD 40365·ROCKET BODY·🇷🇺 Russia

Wystrzelony Dec 27, 2014 z Baikonur Cosmodrome

Loading…

Następne Przeloty (najbliższe 24 godziny)

TLE

ŚwieżeSource: Space-Track

Epoka: Sep 13, 2026, 11:51 UTC

1 40365U 14089B   26256.49410460 -.00000156  00000-0  00000-0 0  9992
2 40365  23.7160 314.1313 6071463  20.3626 356.0824  2.19523698 93769

Śledź BREEZE-M R/B w czasie rzeczywistym z AllMySat

Download on the App Store